Overview Statistics Trail Chart Weather Telemetry Raw packets
 

This is the latest recevied weather packets stored in our database for station/object W8RSN-13. If no packets are shown the sender has not sent any weather packets the latest 10 day(s).

<< 72 73 74 75 76 77 78 >>
Time Temp. Humidity Pressure Rain* Wind** Luminosity Snow
1788168857 20.56° C 79% 1014.8 hPa - - - -
1788168567 20.56° C 77% 1014.7 hPa - - - -
1788168256 20.56° C 76% 1014.5 hPa - - - -
1788167975 20.56° C 77% 1014.7 hPa - - - -
1788167674 20.56° C 77% 1014.7 hPa - - - -
1788167373 20.56° C 77% 1014.7 hPa - - - -
1788167072 20.56° C 77% 1014.6 hPa - - - -
1788166771 20.56° C 77% 1014.6 hPa - - - -
1788166470 20.56° C 77% 1014.6 hPa - - - -
1788166170 20.56° C 76% 1014.5 hPa - - - -
1788165869 21.11° C 74% 1014.7 hPa - - - -
1788165568 21.11° C 78% 1014.7 hPa - - - -
1788165267 21.11° C 75% 1014.9 hPa - - - -
1788164966 21.11° C 74% 1014.8 hPa - - - -
1788164665 21.11° C 73% 1014.8 hPa - - - -
1788164364 21.11° C 70% 1014.9 hPa - - - -
1788164063 21.11° C 69% 1014.9 hPa - - - -
1788163762 21.11° C 67% 1014.7 hPa - - - -
1788163462 21.67° C 69% 1014.9 hPa - - - -
1788163161 21.67° C 68% 1014.8 hPa - - - -
1788162860 21.67° C 68% 1014.9 hPa - - - -
1788162559 21.67° C 69% 1014.9 hPa - - - -
1788162258 21.67° C 69% 1015.1 hPa - - - -
1788161957 21.67° C 70% 1014.9 hPa - - - -
1788161656 21.67° C 68% 1015 hPa - - - -

* Rain since midnight (hover to see other rain measurements)
** Current wind speed in m/s (hover to see current wind gust speed)